User: anonymous   Login
Location: Unspecified
(0.0000°N, 0.0000°E)
Time: 10:02:09
(UTC+02:00)
Language:

Cosmos 2082 Rocket - Orbit

View from above orbital plane
View from above orbital plane
View from above satellite
View from above satellite

Ground track
Ground track

The orbit data is extracted from the following two-line orbital elements,

1 20625U 90046B   16145.22527101 -.00000120  00000-0 -37647-4 0  9997
2 20625  71.0007 245.4736 0015468 330.0097  51.5608 14.14602975342833
Epoch (UTC): 24 May 2016 05:24:23
Eccentricity: 0.0015468
inclination: 71.0007°
perigee height: 832 km
apogee height: 855 km
right ascension of ascending node: 245.4736°
argument of perigee: 330.0097°
revolutions per day: 14.14602975
mean anomaly at epoch: 51.5608°
orbit number at epoch: 34283

The dashed part of the orbit path shows where the satellite is in the earth's shadow,  

DLR